FREGAT DEB, 46238

Orbit data source: Space-Track

FREGAT DEB, 46238 is space debris in LEO originally from a launch on Mon, 18 Jul 2011 UTC launched from the Tyuratam Missile And Space Complex (TTMTR). Debris objects in space refer to the collection of defunct objects orbiting the Earth. Examples of debris include non-operational satellites, rocket bodies, and fragments generated from explosions, collisions, or faulty payload assembly.

Loading next visibility...
Identifier
46238, 2011-037JY
Orbit
LEO
Country
Flag of CISCIS
Related business
Manufacturer
Lavochkin
Mission
Spacecraft
Bus & Motor
Unknown
Mass
Unknown
Launch date (UTC)
2011-07-18 (15 years ago)
Launch vehicle
Unknown
Launch site
Tyuratam Missile And Space Complex (TTMTR)
Object type
Payload
Rocket body
Debris
Shape & HBR
Unknown shape, 0.1 m
Radar Cross Section
Medium (>0.1 m² and <1 m²)

Expand to show TLE details & history
Last TLE update: 3 weeks ago

TLE from 3 weeks ago
0 FREGAT DEB
1 46238U 11037JY  26151.84758052 -.00025704  00000-0 -20602+1 0  9999
2 46238  50.4277 326.7409 0246525  10.1941 350.3680 10.31130368220039
Epoch: 2026-05-31T20:20Z
TLE epoch observation values (Epoch: 2026-05-31T20:20:30.956Z)
Latitude
-0.00005°
Longitude
132.2685°
Altitude
2,322.242 km
Speed
6.852 km/s
True Right ascension
21h 46m 57s
True Declination
0° 00' 00"
Sunlit
Object was in daylight at epoch
Visualization orbit readout
Latitude
Unknown
Longitude
Unknown
Altitude
Unknown
Speed
Unknown
Apparent Right ascension
Unknown
Apparent Declination
Unknown
Sunlit
N/A
Visualization observer readout
Local Sidereal Time
00:50:32
Azimuth
Unknown
Elevation
Unknown
Doppler factor
Unknown
Orbital elements
Apogee altitude
2,758.699 km
Perigee altitude
2,319.046 km
Semi-major axis
8,917.01 km
Eccentricity
0.02465
Inclination
50.4277°
RAAN
326.7409°
Arg. of periapsis
10.1941°
True anomaly
349.88054°
Mean anomaly
350.368°
Eccentric anomaly
350.12578°
Mean motion
2.57759 °/min
Orbital period
139.67 mins
BSTAR
-2.0602
Loading maneuver chart data...
Computing Atmospheric mass density...
Loading historical data...
Loading historical data...
Loading historical data...
Loading historical data...
Loading historical data...
Loading historical data...
Loading historical data...

Documentation

Showing up to 5 results
|